Regional Weather Roundup
Issued by NWS

Home | Current Version | Previous Version | Text Only | Print | Product List | Glossary On
Versions: 1 2 3 4 5 6 7 8 9 10 11 12 13 14 15 16 17 18 19 20 21 22 23 24 25 26 27 28 29 30 31 32 33 34 35 36 37 38 39 40 41 42 43 44 45 46 47 48 49 50
182
ASUS46 KSEW 031410
RWRWA

WASHINGTON REGIONAL WEATHER ROUNDUP
NATIONAL WEATHER SERVICE SEATTLE WA
700 AM PDT TUE MAY 03 2016

NOTE:"FAIR" INDICATES FEW OR NO CLOUDS BELOW 12,000 FEET WITH NO
SIGNIFICANT WEATHER AND/OR OBSTRUCTIONS TO VISIBILITY.

WAZ505-507>509-031500-
SEATTLE, TACOMA, EVERETT, AND VICINITY

CITY           SKY/WX    TMP DP  RH WIND       PRES   REMARKS
EVERETT        PTSUNNY   59  47  64 S7        30.04R
BOEING FIELD   PTSUNNY   58  53  84 SE8       30.02R
RENTON         PTSUNNY   58  50  75 E3        30.02R
SEATAC AIRPORT PTSUNNY   57  51  80 SW5       30.03S
JBLM-MCCHORD   PTSUNNY   54  53  95 VRB2      30.03R
PUYALLUP       FAIR      55  52  88 CALM      30.03S
BREMERTON      CLOUDY    54  54 100 S3        30.05R
JBLM-FT LEWIS  PTSUNNY   54  52  92 SE3       30.02S
TACOMA NARROWS CLOUDY    56  50  80 S6        30.03R
$$

WAZ001-503-506-510-514-515-031500-
NORTH INTERIOR

CITY           SKY/WX    TMP DP  RH WIND       PRES   REMARKS
BELLINGHAM     PTSUNNY   59  50  72 S8        29.99R
FRIDAY HARBOR  CLOUDY    54  50  86 CALM      30.01R
EASTSOUND      CLOUDY    57  50  77 S6        29.98R
PORT ANGELES   CLOUDY    55  50  83 W7        30.02R
EDIZ HOOK      CLOUDY    54  50  89 W15G21    30.02R
PORT TOWNSEND  FAIR      55  52  88 CALM      30.03R
NAS WHIDBEY    CLOUDY    55  51  86 SW8       30.05R
ARLINGTON      PTSUNNY   54  46  76 N6        30.05R
BURLINGTON     SUNNY     55  50  82 S6        30.01S
$$

WAZ020-022-039-040-504-511-512-031500-
SOUTHWEST INTERIOR

CITY           SKY/WX    TMP DP  RH WIND       PRES   REMARKS
SHELTON        CLOUDY    55  51  86 SW6       30.00R
OLYMPIA        CLOUDY    55  51  86 S8        30.03R
CHEHALIS       FAIR      55  55 100 CALM      30.04S
KELSO          CLOUDY    57  50  77 CALM      30.08S
VANCOUVER      CLOUDY    58  51  78 VRB3      30.04R
SCAPPOOSE, OR  CLOUDY    53  49  86 CALM      30.03S
PORTLAND, OR   CLOUDY    58  51  78 CALM      30.04S
$$

WAZ021-516-517-031500-
WASHINGTON COAST

CITY           SKY/WX    TMP DP  RH WIND       PRES   REMARKS
FORKS          CLOUDY    53  53 100 CALM      30.02F
HOQUIAM        CLOUDY    55  55 100 CALM      30.03S FOG
ASTORIA, OR    CLOUDY    54  52  93 SE5       30.04S FOG
$$

WAZ019-023-024-040-518-519-031500-
CASCADE MOUNTAINS AND COLUMBIA GORGE

CITY           SKY/WX    TMP DP  RH WIND       PRES   REMARKS
STAMPEDE PASS  MOSUNNY   49  35  58 SW6       30.07R
TROUTDALE, OR  CLOUDY    57  50  77 E5        30.04R
THE DALLES, OR PTSUNNY   62  43  49 SE3       29.99R
$$

WAZ026-027-041>044-520-521-031500-
EAST SLOPES

CITY           SKY/WX    TMP DP  RH WIND       PRES   REMARKS
OMAK           SUNNY     53  43  68 NW3       30.05S
WENATCHEE      SUNNY     54  40  59 W7        30.03R
ELLENSBURG     SUNNY     50  40  68 CALM      30.02R
YAKIMA         SUNNY     52  41  66 W3        30.01R
$$

WAZ028-034-035-031500-
COLUMBIA BASIN

CITY           SKY/WX    TMP DP  RH WIND       PRES   REMARKS
EPHRATA        SUNNY     57  47  69 N6        30.01R
MOSES LAKE     SUNNY     53  42  66 NE6       30.01S
PASCO          SUNNY     48  44  86 CALM      29.99R
HERMISTON, OR  SUNNY     54  40  59 SW5       29.97R
$$

WAZ036>038-031500-
NORTHEAST WASHINGTON

CITY           SKY/WX    TMP DP  RH WIND       PRES   REMARKS
SPOKANE GEIGER MOSUNNY   55  42  61 E6        30.09R
SPOKANE FELTS  SUNNY     54  44  69 CALM      30.09S
FAIRCHILD AFB  SUNNY     53  44  71 E9        30.08R
COEURDALENE,ID SUNNY     52  45  76 E7        30.09R
DEER PARK      SUNNY     53  45  74 CALM      30.09R
$$

WAZ029>033-031500-
SOUTHEAST WASHINGTON

CITY           SKY/WX    TMP DP  RH WIND       PRES   REMARKS
PULLMAN        SUNNY     57  43  59 E5        30.11R
LEWISTON, ID   SUNNY     56  45  66 SE6       30.09R
WALLA WALLA    SUNNY     69  35  28 SE8       29.99R
PENDLETON, OR  SUNNY     64  30  27 SE6       29.99R
$$




USA.gov is the U.S. government's official web portal to all federal, state and local government web resources and services.